N3819L KRFD-KCVG

Flight info

Callsign N3819L
Flight time N/A
Altitude
Route
Aircraft SF50/L-DOV/C

Departure

Time 2026-04-30 00:35
Airport Chicago Rockford International Airport (KRFD)

Arrival

Time N/A
Airport Cincinnati Northern Kentucky International Airport (KCVG)
Time Latitude Longitude Altitude Speed Heading
2026-04-30 00:29 42.19028 -89.09417 721 ft 0 kts 95°
2026-04-30 00:32 42.19015 -89.09411 723 ft 7 kts 174°
2026-04-30 00:32 42.18983 -89.09385 722 ft 5 kts 92°
2026-04-30 00:32 42.18981 -89.09343 720 ft 4 kts 93°
2026-04-30 00:32 42.18964 -89.09297 721 ft 7 kts 140°
2026-04-30 00:33 42.18903 -89.09293 721 ft 12 kts 185°
2026-04-30 00:33 42.18803 -89.09307 720 ft 17 kts 186°
2026-04-30 00:33 42.18672 -89.09324 717 ft 18 kts 186°
2026-04-30 00:33 42.18556 -89.09338 718 ft 15 kts 185°
2026-04-30 00:34 42.18457 -89.09351 716 ft 14 kts 186°
2026-04-30 00:34 42.18377 -89.09325 716 ft 12 kts 114°
2026-04-30 00:34 42.18368 -89.09273 716 ft 0 kts 94°
2026-04-30 00:34 42.18368 -89.09265 716 ft 6 kts 94°
2026-04-30 00:35 42.18392 -89.09138 719 ft 17 kts 10°
2026-04-30 00:35 42.18652 -89.09106 719 ft 73 kts
2026-04-30 00:35 42.19416 -89.08991 776 ft 142 kts
2026-04-30 00:35 42.20485 -89.08822 1520 ft 158 kts
2026-04-30 00:36 42.21623 -89.08566 2442 ft 166 kts 18°
2026-04-30 00:36 42.22283 -89.07395 3688 ft 181 kts 78°
2026-04-30 00:36 42.21824 -89.05598 4082 ft 233 kts 123°
2026-04-30 00:36 42.21560 -89.05130 4132 ft 243 kts 124°
2026-04-30 00:37 42.21342 -89.04734 4169 ft 251 kts 124°
2026-04-30 00:37 42.20898 -89.03923 4359 ft 258 kts 124°
2026-04-30 00:37 42.20680 -89.03558 4451 ft 262 kts 128°
2026-04-30 00:37 42.20540 -89.03348 4513 ft 262 kts 132°
2026-04-30 00:38 42.19181 -89.01618 4985 ft 275 kts 141°
2026-04-30 00:38 42.17643 -89.00031 5401 ft 277 kts 143°
2026-04-30 00:38 42.16118 -88.98492 5749 ft 273 kts 144°
2026-04-30 00:38 42.14593 -88.97045 6424 ft 261 kts 146°
2026-04-30 00:39 42.13082 -88.95639 6831 ft 266 kts 146°
2026-04-30 00:39 42.11544 -88.94212 7123 ft 274 kts 146°
2026-04-30 00:39 42.09927 -88.92713 7024 ft 289 kts 146°
2026-04-30 00:39 42.08246 -88.91159 6989 ft 296 kts 146°
2026-04-30 00:40 42.06494 -88.89559 7743 ft 263 kts 147°
2026-04-30 00:40 42.04915 -88.88154 7805 ft 279 kts 148°
2026-04-30 00:40 42.03342 -88.86757 7799 ft 265 kts 148°
2026-04-30 00:40 42.01830 -88.85407 7803 ft 257 kts 147°
2026-04-30 00:41 42.00470 -88.83886 7787 ft 253 kts 136°
2026-04-30 00:41 41.99256 -88.82186 7786 ft 251 kts 134°
2026-04-30 00:41 41.98053 -88.80484 7781 ft 251 kts 133°
2026-04-30 00:41 41.96850 -88.78791 7783 ft 251 kts 134°
2026-04-30 00:42 41.95649 -88.77094 7784 ft 250 kts 134°
2026-04-30 00:42 41.94450 -88.75404 7784 ft 250 kts 134°
2026-04-30 00:42 41.93247 -88.73702 7784 ft 250 kts 134°
2026-04-30 00:42 41.92061 -88.72032 7784 ft 250 kts 134°
2026-04-30 00:43 41.90856 -88.70344 7785 ft 250 kts 134°
2026-04-30 00:43 41.89652 -88.68647 7786 ft 250 kts 134°
2026-04-30 00:43 41.88447 -88.66956 7785 ft 250 kts 134°
2026-04-30 00:43 41.87249 -88.65263 7786 ft 250 kts 133°
2026-04-30 00:44 41.86043 -88.63570 7785 ft 250 kts 134°
2026-04-30 00:44 41.84844 -88.61878 7783 ft 250 kts 134°
2026-04-30 00:44 41.83645 -88.60188 7758 ft 250 kts 134°
2026-04-30 00:44 41.82446 -88.58495 7757 ft 250 kts 134°
2026-04-30 00:45 41.81264 -88.56820 7757 ft 251 kts 134°
2026-04-30 00:45 41.80065 -88.55125 7757 ft 250 kts 134°
2026-04-30 00:45 41.78867 -88.53428 7757 ft 250 kts 134°
2026-04-30 00:45 41.77664 -88.51731 7757 ft 250 kts 133°
2026-04-30 00:46 41.76465 -88.50040 7752 ft 250 kts 134°
2026-04-30 00:46 41.75260 -88.48347 7755 ft 257 kts 134°
2026-04-30 00:46 41.73978 -88.46545 7775 ft 274 kts 134°
2026-04-30 00:46 41.72645 -88.44652 7774 ft 282 kts 133°
2026-04-30 00:47 41.71286 -88.42730 7774 ft 286 kts 134°
2026-04-30 00:47 41.70375 -88.41443 7773 ft 288 kts 133°
2026-04-30 00:47 41.68553 -88.38861 7773 ft 289 kts 134°
2026-04-30 00:47 41.67174 -88.36898 7773 ft 289 kts 133°
2026-04-30 00:48 41.65796 -88.34932 7773 ft 290 kts 133°
2026-04-30 00:48 41.64415 -88.32964 7773 ft 290 kts 133°
2026-04-30 00:48 41.63032 -88.30999 7788 ft 290 kts 133°
2026-04-30 00:48 41.62096 -88.29670 7789 ft 290 kts 133°
2026-04-30 00:49 41.60712 -88.27710 7791 ft 290 kts 133°
2026-04-30 00:49 41.59343 -88.25769 7790 ft 290 kts 134°
2026-04-30 00:49 41.57942 -88.23777 7788 ft 290 kts 133°
2026-04-30 00:49 41.56580 -88.21840 7787 ft 290 kts 133°
2026-04-30 00:50 41.55202 -88.19876 7787 ft 290 kts 133°
2026-04-30 00:50 41.53822 -88.17910 7777 ft 290 kts 133°
2026-04-30 00:50 41.52447 -88.15946 7778 ft 290 kts 133°
2026-04-30 00:50 41.51068 -88.13978 7777 ft 290 kts 133°
2026-04-30 00:51 41.49817 -88.12191 7760 ft 290 kts 133°